STARLINK-1153, 45080

Orbit data source: Space-Track

STARLINK-1153, 45080 is a payload satellite owned by SpaceX/Seattle (US) in LEO that was launched on Wed, 29 Jan 2020 UTC via an FALCON 9 launch vehicle from the Air Force Eastern Test Range (AFETR). Payload-class satellites include a variety of spacecraft equipped with specific instruments for various scientific and technological missions. These include communications satellites like Starlink; space stations such as the ISS; scientific satellites like the Hubble; Earth observation satellites from companies like Planet Labs, Umbra, and HawkEye 360; GPS; miniature CubeSats for education and research; and military/defense satellites.

Loading next visibility...
Identifier
45080, 2020-006AN
Orbit
LEO
Country
Flag of USUS
Related business
Manufacturer
SpaceX/Seattle
Mission
Operational Commercial Communications
Bus & Motor
STARLINK, Unknown motor
Mass
260 kg wet, ~248 kg dry
Launch date (UTC)
2020-01-29 (6 years ago)
Launch vehicle
FALCON 9
Launch site
Air Force Eastern Test Range (AFETR)
Object type
Payload
Rocket body
Debris
Shape & HBR
Box + 1 Pan, 10.1 m
Radar Cross Section
13.562 m², Large (>1 m²)

Expand to show TLE details & history
Last TLE update: 9 hours ago

TLE from 9 hours ago
0 STARLINK-1153
1 45080U 20006AN  25298.83273929 -.00007231  00000-0 -46726-3 0  9997
2 45080  53.0526 152.0155 0001309  97.4339 262.6799 15.06383422316417
Epoch: 2025-10-25T19:59Z
TLE epoch observation values (Epoch: 2025-10-25T19:59:08.674Z)
Latitude
-0.00001°
Longitude
177.77173°
Altitude
548.257 km
Speed
7.589 km/s
True Right ascension
10h 08m 03s
True Declination
0° 00' 00"
Sunlit
Object was in daylight at epoch
Visualization orbit readout
Latitude
Unknown
Longitude
Unknown
Altitude
Unknown
Speed
Unknown
Apparent Right ascension
Unknown
Apparent Declination
Unknown
Sunlit
N/A
Visualization observer readout
Local Sidereal Time
00:39:20
Azimuth
Unknown
Elevation
Unknown
Doppler factor
Unknown
Orbital elements
Apogee altitude
548.44 km
Perigee altitude
546.627 km
Semi-major axis
6,925.67 km
Eccentricity
0.00013
Inclination
53.0526°
RAAN
152.0155°
Arg. of periapsis
97.4339°
True anomaly
262.66502°
Mean anomaly
262.6799°
Eccentric anomaly
262.67246°
Mean motion
3.76574 °/min
Orbital period
95.6 mins
BSTAR
-0.00046726
Loading maneuver chart data...
Computing Atmospheric mass density...

Documentation

Showing up to 5 results
|